Terug naar catalogus

CZ-6A DEB

ActiefSSO
NORAD 54279·DEBRIS·🇨🇳 China

Gelanceerd Nov 11, 2022 vanaf Taiyuan Satellite Launch Center

Loading…

Volgende Passages (komende 24 uur)

TLE

VersSource: Space-Track

Epoch: Sep 13, 2026, 23:10 UTC

1 54279U 22151W   26256.96557411  .00000308  00000-0  11927-3 0  9991
2 54279  98.6142 270.7752 0138358 168.4163 192.0260 14.31728196199816

Volg CZ-6A DEB in realtime met AllMySat

Download on the App Store